Location: ????????
(55.3939°N, 37.4780°E)
Time: 19:24:25
(UTC+00:00)

NOSS 3-4 (C) - Pass Details

Date: 14 April 2026
Orbit: 773 x 1438 km, 63.4° (Epoch: 26 December)

Event Time Altitude Azimuth Distance (km) Brightness Sun altitude
Rises 19:55:12 0° 238° (WSW) 3,277 6.2 -22.0°
Reaches altitude 10° 19:57:31 10° 241° (WSW) 2,386 5.5 -22.1°
Maximum altitude 20:02:57 73° 327° (NNW) 912 3.4 -22.5°
Drops below altitude 10° 20:09:12 10° 52° (NE) 2,721 6.0 -22.8°
Sets 20:12:00 0° 54° (NE) 3,774 6.8 -22.9°
